STARLINK-32235, 60739

Orbit data source: Space-Track

STARLINK-32235, 60739 is a payload satellite owned by SpaceX/Seattle (US) in LEO that was launched on Wed, 28 Aug 2024 UTC via an FALCON 9 launch vehicle from the Air Force Eastern Test Range (AFETR). Payload-class satellites include a variety of spacecraft equipped with specific instruments for various scientific and technological missions. These include communications satellites like Starlink; space stations such as the ISS; scientific satellites like the Hubble; Earth observation satellites from companies like Planet Labs, Umbra, and HawkEye 360; GPS; miniature CubeSats for education and research; and military/defense satellites.

Loading next visibility...
Identifier
60739, 2024-152V
Orbit
LEO
Country
Flag of USUS
Related business
Manufacturer
SpaceX/Seattle
Mission
Operational Commercial Communications
Bus & Motor
STARLINK V2M, Unknown motor
Mass
730 kg wet, ~700 kg dry
Launch date (UTC)
2024-08-28 (2 years ago)
Launch vehicle
FALCON 9
Launch site
Air Force Eastern Test Range (AFETR)
Object type
Payload
Rocket body
Debris
Shape & HBR
Box + 2 Pan, 17.7 m
Radar Cross Section
33.884 m², Large (>1 m²)

Expand to show TLE details & history
Last TLE update: 7 hours ago

TLE from 7 hours ago
0 STARLINK-32235
1 60739U 24152V   26126.91994478 -.00002219  00000-0 -62799-4 0  9990
2 60739  53.1627 358.1379 0001441  76.0098 284.1063 15.30211127 95716
Epoch: 2026-05-06T22:04Z
TLE epoch observation values (Epoch: 2026-05-06T22:04:43.228Z)
Latitude
-0.00005°
Longitude
162.18423°
Altitude
475.841 km
Speed
7.629 km/s
True Right ascension
23h 52m 33s
True Declination
0° 00' 00"
Sunlit
Object was in daylight at epoch
Visualization orbit readout
Latitude
Unknown
Longitude
Unknown
Altitude
Unknown
Speed
Unknown
Apparent Right ascension
Unknown
Apparent Declination
Unknown
Sunlit
N/A
Visualization observer readout
Local Sidereal Time
13:16:02
Azimuth
Unknown
Elevation
Unknown
Doppler factor
Unknown
Orbital elements
Apogee altitude
476.425 km
Perigee altitude
474.45 km
Semi-major axis
6,853.575 km
Eccentricity
0.00014
Inclination
53.1627°
RAAN
358.1379°
Arg. of periapsis
76.0098°
True anomaly
284.09028°
Mean anomaly
284.1063°
Eccentric anomaly
284.09829°
Mean motion
3.82532 °/min
Orbital period
94.11 mins
BSTAR
-0.000062799
Loading maneuver chart data...
Computing Atmospheric mass density...
Loading historical data...
Loading historical data...
Loading historical data...
Loading historical data...
Loading historical data...
Loading historical data...
Loading historical data...

Documentation

Showing up to 5 results
|